Regional Weather Roundup
Issued by NWS Charleston, WV

Home | Current Version | Previous Version | Text Only | Print | Product List | Glossary Off
Versions: 1 2 3 4 5 6 7 8 9 10 11 12 13 14 15 16 17 18 19 20 21 22 23 24 25 26 27 28 29 30 31 32 33 34 35 36 37 38 39 40 41 42 43 44 45 46 47 48 49 50

000
ASUS41 KRLX 152010
RWRRLX
West Virginia Regional Weather Roundup
National Weather Service Charleston WV
300 PM EST SUN JAN 15 2017

Note: "fair" indicates few or no clouds below 12,000 feet with no
significant weather and/or obstructions to visibility.

WVZ003-152100-
Northern Panhandle of West Virginia

CITY           SKY/WX    TMP DP  RH WIND       PRES   REMARKS
WHEELING       CLOUDY    32  24  72 VRB3      30.34F
$$

WVZ009-152100-
Northwest West Virginia

CITY           SKY/WX    TMP DP  RH WIND       PRES   REMARKS
PARKERSBURG    CLOUDY    38  31  76 NE3       30.37F
$$

WVZ006-152100-
Western West Virginia

CITY           SKY/WX    TMP DP  RH WIND       PRES   REMARKS
HUNTINGTON     CLOUDY    39  36  89 N7        30.32F FOG
$$

WVZ015-152100-
West Central West Virginia

CITY           SKY/WX    TMP DP  RH WIND       PRES   REMARKS
CHARLESTON     CLOUDY    41  37  86 CALM      30.32F
$$

WVZ022-031-152100-
North Central West Virginia

CITY           SKY/WX    TMP DP  RH WIND       PRES   REMARKS
CLARKSBURG     CLOUDY    39  33  79 CALM      30.32F
MORGANTOWN     CLOUDY    38  30  73 CALM      30.34F
$$

WVZ025-035-042-045-152100-
Southern West Virginia

CITY           SKY/WX    TMP DP  RH WIND       PRES   REMARKS
BECKLEY        LGT RAIN  42  41  96 N3        30.26F FOG
LOGAN          CLOUDY    41  41 100 CALM      30.28F FOG
BLUEFIELD      CLOUDY    47  46  97 W5        30.26F
LEWISBURG      CLOUDY    45  40  83 SW3       30.26F
$$

WVZ047-152100-
Northern Mountains of West Virginia

CITY           SKY/WX    TMP DP  RH WIND       PRES   REMARKS
ELKINS         CLOUDY    41  35  79 CALM      30.30F
$$

WVZ052-152100-
Eastern Panhandle of West Virginia

CITY           SKY/WX    TMP DP  RH WIND       PRES   REMARKS
MARTINSBURG    CLOUDY    40  21  46 N7        30.34F
PETERSBURG     CLOUDY    44  37  77 CALM      30.33R
$$




USA.gov is the U.S. government's official web portal to all federal, state and local government web resources and services.